When you browse on this site, cookies collect data to enhance your experience and personalize the content and advertising you see.
Visit our Privacy Policy to learn more. By continuing to use the site, you agree to this use of cookies and data.

Stündliche Wetter Franceville

Heute, 12 Juli, Sonntag

Zeit Temperatur Niederschläge Wind Luftdruck Luftfeuchtigkeit
00:00 +23°C° 0 mm 0 m/S 732 mmHg 85%
01:00 +23°C° 0 mm 0 m/S 732 mmHg 88%
02:00 +23°C° 0.1 mm 0 m/S 731 mmHg 88%
03:00 +22°C° 0.1 mm 0 m/S 731 mmHg 89%
04:00 +22°C° 0.1 mm 0 m/S 731 mmHg 89%
05:00 +22°C° 0 mm 0 m/S 732 mmHg 89%
06:00 +22°C° 0 mm 0 m/S 732 mmHg 89%
07:00 +23°C° 0 mm 0 m/S 733 mmHg 89%
08:00 +26°C° 0.1 mm 1 m/S 733 mmHg 83%
09:00 +27°C° 0.1 mm 1 m/S 733 mmHg 77%
10:00 +29°C° 0.1 mm 1 m/S 734 mmHg 71%
11:00 +30°C° 0.3 mm 1 m/S 733 mmHg 66%
12:00 +31°C° 0.3 mm 1 m/S 733 mmHg 62%
13:00 +32°C° 0 mm 1 m/S 732 mmHg 59%
14:00 +32°C° 0.2 mm 1 m/S 731 mmHg 59%
15:00 +31°C° 0.2 mm 1 m/S 731 mmHg 60%
16:00 +31°C° 0.2 mm 1 m/S 730 mmHg 60%
17:00 +30°C° 0.9 mm 1 m/S 730 mmHg 68%
18:00 +28°C° 0.9 mm 1 m/S 731 mmHg 76%
19:00 +27°C° 0.9 mm 1 m/S 731 mmHg 84%
20:00 +26°C° 1 mm 1 m/S 731 mmHg 86%
21:00 +26°C° 1 mm 1 m/S 732 mmHg 88%
22:00 +25°C° 1 mm 1 m/S 732 mmHg 89%
23:00 +25°C° 0.3 mm 1 m/S 732 mmHg 91%

Morgen, 13 Juli, Montag

Zeit Temperatur Niederschläge Wind Luftdruck Luftfeuchtigkeit
00:00 +24°C° 0.3 mm 1 m/S 732 mmHg 92%
01:00 +24°C° 0.3 mm 1 m/S 732 mmHg 94%
02:00 +22°C° 0.6 mm 0 m/S 732 mmHg 94%
03:00 +21°C° 0.6 mm 0 m/S 731 mmHg 95%
04:00 +21°C° 0.6 mm 0 m/S 731 mmHg 95%
05:00 +21°C° 0.1 mm 0 m/S 731 mmHg 95%
06:00 +21°C° 0.1 mm 0 m/S 732 mmHg 94%
07:00 +22°C° 0.1 mm 0 m/S 732 mmHg 93%
08:00 +25°C° 0 mm 1 m/S 732 mmHg 88%
09:00 +26°C° 0 mm 1 m/S 732 mmHg 83%
10:00 +27°C° 0 mm 1 m/S 733 mmHg 78%
11:00 +28°C° 0 mm 1 m/S 732 mmHg 74%
12:00 +29°C° 0 mm 1 m/S 731 mmHg 69%
13:00 +30°C° 0 mm 1 m/S 731 mmHg 65%
14:00 +30°C° 0 mm 1 m/S 730 mmHg 64%
15:00 +30°C° 0 mm 1 m/S 729 mmHg 63%
16:00 +30°C° 0 mm 1 m/S 729 mmHg 61%
17:00 +29°C° 0 mm 1 m/S 729 mmHg 67%
18:00 +28°C° 0 mm 1 m/S 729 mmHg 72%
19:00 +27°C° 0 mm 1 m/S 730 mmHg 77%
20:00 +26°C° 0 mm 1 m/S 730 mmHg 78%
21:00 +25°C° 0 mm 1 m/S 731 mmHg 79%
22:00 +25°C° 0 mm 1 m/S 732 mmHg 80%
23:00 +25°C° 0 mm 1 m/S 732 mmHg 80%

übermorgen, 14 Juli, Dienstag

Zeit Temperatur Niederschläge Wind Luftdruck Luftfeuchtigkeit
00:00 +25°C° 0 mm 1 m/S 731 mmHg 81%
01:00 +24°C° 0 mm 1 m/S 731 mmHg 81%
02:00 +24°C° 0 mm 1 m/S 731 mmHg 83%
03:00 +24°C° 0 mm 1 m/S 730 mmHg 85%
04:00 +21°C° 0 mm 0 m/S 730 mmHg 87%
05:00 +22°C° 0 mm 0 m/S 731 mmHg 87%
06:00 +22°C° 0 mm 0 m/S 731 mmHg 87%
07:00 +22°C° 0 mm 0 m/S 731 mmHg 87%
08:00 +23°C° 0 mm 0 m/S 732 mmHg 80%
09:00 +25°C° 0 mm 0 m/S 732 mmHg 74%
10:00 +26°C° 0 mm 0 m/S 732 mmHg 67%
11:00 +28°C° 0 mm 1 m/S 732 mmHg 67%
12:00 +28°C° 0 mm 1 m/S 731 mmHg 66%
13:00 +29°C° 0 mm 1 m/S 731 mmHg 66%
14:00 +28°C° 0 mm 1 m/S 730 mmHg 67%
15:00 +28°C° 0 mm 1 m/S 729 mmHg 68%
16:00 +28°C° 0 mm 1 m/S 728 mmHg 69%
17:00 +27°C° 0 mm 1 m/S 729 mmHg 74%
18:00 +26°C° 0 mm 1 m/S 729 mmHg 79%
19:00 +26°C° 0 mm 1 m/S 730 mmHg 84%
20:00 +25°C° 0 mm 1 m/S 730 mmHg 86%
21:00 +23°C° 0 mm 0 m/S 731 mmHg 88%
22:00 +23°C° 0 mm 0 m/S 731 mmHg 90%
23:00 +23°C° 0 mm 0 m/S 731 mmHg 90%

15 Juli, Mittwoch

Zeit Temperatur Niederschläge Wind Luftdruck Luftfeuchtigkeit
00:00 +22°C° 0 mm 0 m/S 731 mmHg 90%
01:00 +22°C° 0 mm 0 m/S 731 mmHg 90%
02:00 +22°C° 0 mm 0 m/S 731 mmHg 90%
03:00 +24°C° 0 mm 1 m/S 731 mmHg 90%
04:00 +24°C° 0 mm 1 m/S 730 mmHg 90%
05:00 +22°C° 0 mm 0 m/S 731 mmHg 90%
06:00 +22°C° 0 mm 0 m/S 731 mmHg 89%
07:00 +22°C° 0 mm 0 m/S 732 mmHg 89%
08:00 +23°C° 0 mm 0 m/S 732 mmHg 80%
09:00 +27°C° 0 mm 1 m/S 733 mmHg 71%
10:00 +29°C° 0 mm 1 m/S 733 mmHg 62%
11:00 +30°C° 0 mm 1 m/S 733 mmHg 60%
12:00 +31°C° 0 mm 1 m/S 732 mmHg 58%
13:00 +31°C° 0 mm 1 m/S 731 mmHg 56%
14:00 +31°C° 0.2 mm 1 m/S 731 mmHg 58%
15:00 +31°C° 0.2 mm 1 m/S 730 mmHg 59%
16:00 +30°C° 0.2 mm 1 m/S 730 mmHg 61%
17:00 +29°C° 0.6 mm 1 m/S 730 mmHg 69%
18:00 +27°C° 0.6 mm 1 m/S 730 mmHg 77%
19:00 +26°C° 0.6 mm 1 m/S 731 mmHg 85%
20:00 +26°C° 0.6 mm 1 m/S 731 mmHg 85%
21:00 +25°C° 0.6 mm 1 m/S 732 mmHg 86%
22:00 +25°C° 0.6 mm 1 m/S 732 mmHg 87%
23:00 +25°C° 0.7 mm 1 m/S 732 mmHg 88%

16 Juli, Donnerstag

Zeit Temperatur Niederschläge Wind Luftdruck Luftfeuchtigkeit
00:00 +25°C° 0.7 mm 1 m/S 732 mmHg 89%
01:00 +24°C° 0.7 mm 1 m/S 732 mmHg 90%
02:00 +24°C° 0.1 mm 1 m/S 732 mmHg 91%
03:00 +24°C° 0.1 mm 1 m/S 732 mmHg 92%
04:00 +22°C° 0.1 mm 0 m/S 732 mmHg 92%
05:00 +22°C° 0 mm 0 m/S 732 mmHg 92%
06:00 +22°C° 0 mm 0 m/S 733 mmHg 93%
07:00 +22°C° 0 mm 0 m/S 733 mmHg 93%
08:00 +22°C° 0 mm 0 m/S 733 mmHg 89%
09:00 +23°C° 0 mm 0 m/S 734 mmHg 86%
10:00 +26°C° 0 mm 1 m/S 734 mmHg 82%
11:00 +27°C° 0 mm 1 m/S 733 mmHg 77%
12:00 +28°C° 0 mm 1 m/S 733 mmHg 71%
13:00 +29°C° 0 mm 1 m/S 732 mmHg 66%
14:00 +29°C° 0.1 mm 1 m/S 731 mmHg 64%
15:00 +30°C° 0.1 mm 2 m/S 731 mmHg 62%
16:00 +30°C° 0.1 mm 2 m/S 730 mmHg 61%
17:00 +29°C° 0.9 mm 1 m/S 731 mmHg 69%
18:00 +27°C° 0.9 mm 1 m/S 731 mmHg 78%
19:00 +25°C° 0.9 mm 1 m/S 732 mmHg 86%
20:00 +25°C° 0.8 mm 1 m/S 732 mmHg 87%
21:00 +25°C° 0.8 mm 1 m/S 733 mmHg 88%
22:00 +25°C° 0.8 mm 1 m/S 733 mmHg 89%
23:00 +24°C° 0.4 mm 1 m/S 733 mmHg 90%

17 Juli, Freitag

Zeit Temperatur Niederschläge Wind Luftdruck Luftfeuchtigkeit
00:00 +24°C° 0.4 mm 1 m/S 733 mmHg 91%
01:00 +24°C° 0.4 mm 1 m/S 733 mmHg 92%
02:00 +24°C° 0.2 mm 1 m/S 732 mmHg 93%
03:00 +22°C° 0.2 mm 0 m/S 732 mmHg 93%
04:00 +21°C° 0.2 mm 0 m/S 732 mmHg 93%
05:00 +21°C° 0.1 mm 0 m/S 732 mmHg 93%
06:00 +23°C° 0.1 mm 1 m/S 733 mmHg 93%
07:00 +23°C° 0.1 mm 1 m/S 733 mmHg 93%
08:00 +24°C° 0 mm 1 m/S 733 mmHg 90%
09:00 +25°C° 0 mm 1 m/S 733 mmHg 86%
10:00 +23°C° 0 mm 0 m/S 734 mmHg 83%
11:00 +26°C° 0 mm 1 m/S 733 mmHg 82%
12:00 +26°C° 0 mm 1 m/S 732 mmHg 80%
13:00 +26°C° 0 mm 2 m/S 732 mmHg 79%
14:00 +27°C° 0 mm 1 m/S 731 mmHg 76%
15:00 +27°C° 0 mm 1 m/S 731 mmHg 72%
16:00 +28°C° 0 mm 1 m/S 730 mmHg 68%
17:00 +27°C° 0 mm 1 m/S 731 mmHg 73%
18:00 +26°C° 0 mm 1 m/S 731 mmHg 77%
19:00 +25°C° 0 mm 1 m/S 731 mmHg 82%
20:00 +23°C° 0 mm 0 m/S 732 mmHg 84%
21:00 +22°C° 0 mm 0 m/S 732 mmHg 86%
22:00 +22°C° 0 mm 0 m/S 733 mmHg 88%
23:00 +22°C° 0 mm 0 m/S 732 mmHg 88%
Mehr zeigen